Regional Weather Roundup
Issued by NWS Green Bay, WI

Home | Current Version | Previous Version | Text Only | Print | Product List | Glossary On
Versions: 1 2 3 4 5 6 7 8 9 10 11 12 13 14 15 16 17 18 19 20 21 22 23 24 25 26 27 28 29 30 31 32 33 34 35 36 37 38 39 40 41 42 43 44 45 46 47 48 49 50
000
ASUS43 KGRB 300400
RWRGRB

NORTH-CENTRAL AND NORTHEAST WISCONSIN REGIONAL WEATHER ROUNDUP
NATIONAL WEATHER SERVICE GREEN BAY WI
1100 PM CDT FRI APR 29 2016

WIZ005-009-010>012-018-019-300500-
NORTH CENTRAL WISCONSIN

CITY           SKY/WX    TMP DP  RH WIND       PRES   REMARKS
IRONWOOD         N/A     34  34 100 CALM      30.19S
MANITOWISH WTR NOT AVBL
ARBOR VITAE    NOT AVBL
EAGLE RIVER    NOT AVBL
LAND O LAKES   NOT AVBL
RHINELANDER    CLEAR     44  32  62 CALM      30.16R
PHILLIPS       NOT AVBL
ANTIGO         NOT AVBL
TOMAHAWK       NOT AVBL
MERRILL        NOT AVBL
$$

WIZ013-073-300500-
NORTHEAST WISCONSIN

CITY           SKY/WX    TMP DP  RH WIND       PRES   REMARKS
IRON MOUNTAIN  CLEAR     42  28  57 N3        30.16S
MARINETTE      CLEAR     43  28  56 CALM      30.16S
$$

WIZ017-030-035>037-045-300500-
CENTRAL WISCONSIN

CITY           SKY/WX    TMP DP  RH WIND       PRES   REMARKS
MEDFORD        NOT AVBL
WAUSAU         CLEAR     46  34  62 E5        30.13S
MOSINEE        NOT AVBL
MARSHFIELD     CLEAR     45  35  68 E5        30.12S
WISC RAPIDS    CLOUDY    46  33  60 SE5       30.14S
STEVENS POINT  NOT AVBL
WAUPACA        NOT AVBL
SHAWANO        NOT AVBL
CLINTONVILLE   NOT AVBL
WAUTOMA        CLEAR     40  34  79 CALM      30.15R
$$

WIZ038-039-048-051-300500-
FOX VALLEY

CITY           SKY/WX    TMP DP  RH WIND       PRES   REMARKS
NWS GREEN BAY  CLEAR     44  32  62 CALM      30.16S
APPLETON       PTCLDY    45  30  57 SE3       30.14S
OSHKOSH        CLEAR     43  30  60 CALM      30.14S
FOND DU LAC    CLEAR     41  30  65 SE6       30.14S
$$

WIZ022-050-052-300500-
EAST CENTRAL WISCONSIN

CITY           SKY/WX    TMP DP  RH WIND       PRES   REMARKS
EPHRAIM        NOT AVBL
STURGEON BAY   CLEAR     39  28  65 CALM      30.18S
MANITOWOC      NOT AVBL
SHEBOYGAN      CLEAR     35  30  82 CALM      30.15S
$$

LMZ563-521-522-541>543-300500-
LAKESHORE

STATION/POSITION TIME  TEMP    WIND        PRES    VSBY  WAVE
                       AIR SEA DIR/SP/G                  HT/PER
                 (UTC) (F)     (DEG/KT/KT) (MB)    (MI)  (FT/S)
SHEBOYGAN LKSHOR 0300   43      30/  2/  3 1021.9R
KEWAUNEE LKSHORE 0300   41                   N/A
ALGOMA MARINA    0315          330/  5/  6   N/A
NORTHPORT PIER   0300   43     300/  4/  5 1021.7R
N MID LAKE BUOY  0250   43 38  100/  4/  8 1021.7F         0
CHAMBERS ISLAND  0300   41      CALM  /  2 1021.7
MENOMINEE LKSHOR 0300   46                   N/A
$$




USA.gov is the U.S. government's official web portal to all federal, state and local government web resources and services.